GLOBALSTAR M083 [+]

Last updated on Fri Dec 29 2023 00:02:56 GMT+0000 (Coordinated Universal Time)

1 37739U 11033A 23361.83779193 -.00000067 00000+0 20402-3 0 9993 2 37739 51.9850 240.5231 0001136 78.6899 358.9977 12.62264366578998
UTC large
Height (km)
Speed (km/s)
/
Latitude / Longitude
Inclination (degrees)
Orbital Period (minutes)
Azimuth
Elevation
Range (km)
Doppler Factor

Next 0 passes for location: London (51.5072 / 0.1276)

Sorry there are no passes over London.